Location: Casper
(42.8670°N, 106.3130°W)
Time: 09:14:34
(UTC-07:00)

Daily predictions for brighter satellites

Satellite Brightness Start Highest point End
(mag) Time Altitude Azimuth Time Altitude Azimuth Time Altitude Azimuth
SL-8 Rocket 4.3 16:52:53 10° N 16:58:45 43° ENE 17:04:34 10° SSE
Cosmos 158 Rocket 4.1 16:53:57 10° NNW 16:59:17 61° ENE 17:04:29 10° SSE
CZ-2C R/B 2.9 16:54:54 10° SE 16:59:33 41° ENE 17:04:21 10° N
Cosmos 2263 Rocket 3.4 16:58:46 10° SW 17:04:01 40° WNW 17:09:20 10° NNE
SMAP 3.4 17:01:44 10° SE 17:06:09 45° ENE 17:10:35 10° N
Abrixas 3.8 17:04:23 10° WNW 17:06:58 26° N 17:09:33 10° ENE
Cosmos 1536 2.8 17:03:09 10° N 17:07:15 83° E 17:11:19 10° S
Cosmos 1455 Rocket 4.0 17:04:39 10° NNE 17:08:25 27° ENE 17:12:12 10° SE
Cosmos 2366 rocket 4.5 17:03:27 10° N 17:09:24 39° ENE 17:15:15 10° SE
Cosmos 1048 Rocket 4.3 17:04:20 10° NNW 17:09:39 77° WSW 17:14:59 10° SSE
IRS-1A Rocket 4.4 17:05:15 10° SSE 17:10:45 82° WSW 17:16:19 10° NNW
OTV 4 2.9 17:08:43 10° WSW 17:11:04 21° SSW 17:13:26 10° SE
Cosmos 2218 Rocket 4.3 17:06:42 10° N 17:12:46 47° ENE 17:18:42 10° SSE
Cosmos 2181 Rocket 4.1 17:08:31 10° S 17:14:49 77° E 17:21:16 10° N
Cosmos 1812 3.7 17:16:04 10° SSE 17:19:23 28° E 17:22:42 10° NNE
GEOS 3 Rocket 4.2 17:20:12 10° ESE 17:24:46 34° NE 17:29:21 10° NNW
Cosmos 1346 Rocket 4.4 17:23:23 10° SE 17:25:44 16° E 17:26:53 14° ENE
Cosmos 1295 Rocket 4.5 17:20:41 10° N 17:26:51 89° E 17:32:56 10° S
PAYLOAD A 4.3 17:24:38 10° S 17:29:24 70° WSW 17:34:22 10° NNW
Cosmos 1844 Rocket 2.7 17:24:07 10° SSW 17:29:42 78° ESE 17:35:20 10° NNE
SL-8 R/B 4.4 17:31:17 10° SSW 17:35:41 39° SE 17:38:57 17° E
CZ-3B DEB 2.1 17:32:57 10° SSW 17:36:26 64° SE 17:43:53 14° NE
SPOT 3 Rocket 3.6 17:31:33 10° SSE 17:36:46 87° WSW 17:41:58 10° NNW
CZ-4 R/B 2.0 17:34:11 10° S 17:38:20 63° W 17:42:27 10° NNW
MSX 3.8 17:33:33 10° SSE 17:39:14 65° ENE 17:44:56 10° N
SJ-12 4.2 17:35:54 10° S 17:39:58 72° W 17:44:06 10° NNW
COSMOS 2487 4.0 17:37:38 10° NNE 17:39:54 19° NE 17:39:54 19° NE
Cosmos 1844 3.6 17:37:53 10° SSW 17:43:25 75° ESE 17:48:59 10° NNE
ASTRO F (AKARI) 4.2 17:42:49 12° NNE 17:45:40 61° ESE 17:48:47 10° S
SL-08 R/B 4.5 17:39:48 10° N 17:46:14 78° E 17:52:30 10° S
CORIOLIS 4.2 17:40:58 10° SSE 17:46:23 85° WSW 17:51:49 10° NNW
Cosmos 1975 3.1 17:45:26 10° N 17:49:22 46° ENE 17:53:16 10° SSE
USA 32 4.1 17:46:18 10° S 17:51:31 80° W 17:56:46 10° N
USA 234 3.7 17:48:21 13° NE 17:54:04 57° NNW 18:00:26 10° WSW
Meteor 1-12 Rocket 4.2 17:48:39 10° N 17:54:26 73° E 18:00:18 10° SSE
IDEFIX/ARIANE 42P 3.1 17:50:14 10° S 17:55:23 63° W 18:00:33 10° NNW
Cosmos 1544 Rocket 3.9 17:52:20 10° NNW 17:56:48 71° W 18:01:14 10° S
COSMO-SKYMED 1 2.7 17:53:03 12° NNE 17:56:54 49° E 18:01:06 10° S
Cosmos 2278 Rocket 2.2 17:54:57 10° S 18:00:30 63° ESE 18:04:53 17° NNE
Tiangong 1 3.2 17:59:43 10° S 18:01:27 14° SSE 18:01:34 14° SE
BREEZE M DEB (TANK) 3.4 17:59:21 10° NW 18:02:31 44° NNE 18:06:14 24° E
ISS -2.4 18:00:26 10° W 18:03:35 41° NNW 18:04:42 30° NNE
Cosmos 494 Rocket 4.1 18:01:30 10° NNW 18:06:46 82° WSW 18:12:01 10° SSE
Nadezhda 3 Rocket 4.1 18:01:36 10° SSE 18:07:30 50° E 18:13:31 10° NNE
NOSS 3-3 (A) 4.0 18:04:03 10° SSW 18:10:09 68° ESE 18:14:23 23° NE
NOSS 3-3 (C) 4.0 18:04:09 10° SSW 18:10:15 67° ESE 18:14:27 23° NE
Genesis I 3.4 18:07:48 10° NNW 18:11:36 45° NE 18:11:58 43° ENE
Cosmos 1484 Rocket 2.7 18:09:51 10° S 18:13:37 84° WSW 18:17:22 10° NNW
Cosmos 1536 Rocket 3.8 18:13:03 10° SSW 18:17:30 73° W 18:22:00 10° N
ATLAS 2AS CENTAUR R/B 3.4 18:10:17 10° NW 18:18:18 68° WSW 18:25:45 10° SSE
Meteor 1-13 Rocket 4.3 18:14:40 10° S 18:20:09 53° E 18:24:13 19° NNE
Meteor 2-14 Rocket 4.4 18:15:14 10° N 18:21:18 57° ENE 18:27:19 10° SSE
Cosmos 2082 Rocket 2.3 18:19:33 10° NNW 18:25:03 49° ENE 18:27:09 33° ESE
Cosmos 1833 Rocket 2.9 18:23:17 10° NNW 18:28:42 45° ENE 18:29:26 42° E
Cosmos 1500 3.4 18:27:24 10° NNW 18:31:13 68° W 18:35:01 10° S
NOAA 12 4.0 18:26:56 10° SSE 18:32:11 70° ENE 18:37:26 10° N
Meteor 1-28 Rocket 3.1 18:35:17 74° SSE 18:35:17 74° SSE 18:38:50 10° S
METEOR-M 4.0 18:31:38 10° SSE 18:36:54 65° ENE 18:42:12 10° N
BREEZE-M DEB (TANK) 4.5 18:32:06 10° WNW 18:37:41 32° N 18:37:49 32° N
Meteor 2-21 Rocket 4.3 18:32:21 10° N 18:38:36 85° E 18:44:46 10° S
Cosmos 921 Rocket 3.8 18:35:40 10° S 18:38:26 37° SSE 18:38:26 37° SSE
Meteor 2-16 Rocket 4.3 18:37:23 10° N 18:43:30 77° E 18:49:34 10° SSE
SKYMED 2 4.4 18:41:41 16° N 18:44:58 49° WNW 18:49:09 10° SSW
Okean 1-7 Rocket 3.5 18:42:31 10° S 18:47:01 84° ESE 18:47:01 84° ESE
FALCON 9 R/B 3.7 18:26:54 10° WSW 18:47:53 51° S 18:51:03 33° SE
Meteor 2-4 Rocket 4.1 18:46:41 10° S 18:50:25 42° SSE 18:50:25 42° SSE
SL-24 R/B - RUBIN 2 4.4 18:54:47 10° SSW 19:01:07 89° WNW 19:02:44 55° NNE
Cosmos 1346 Rocket 4.2 18:58:12 10° SW 19:01:50 36° WNW 19:02:29 33° NW
GEOS 3 Rocket 4.4 18:57:49 10° SSE 19:02:41 47° WSW 19:07:38 10° NW
Cosmos 1535 Rocket 4.4 18:57:31 10° N 19:03:53 87° W 19:10:07 10° S
Cosmos 1934 Rocket 3.8 19:00:23 10° N 19:06:36 79° E 19:12:52 10° S
Timation 2 Rocket 4.4 19:04:38 10° NNW 19:11:26 70° WSW 19:18:16 10° SSE
BREEZE-M DEB (TANK) 4.4 19:23:40 10° WNW 19:26:54 30° NNW 19:26:54 30° NNW
BREEZE-M R/B 4.2 19:21:09 10° WSW 19:28:24 53° NW 19:28:24 53° NW
Cosmos 2297 4.2 19:23:41 10° SW 19:29:12 53° WNW 19:29:17 53° WNW
Cosmos 1821 Rocket 4.5 19:24:08 10° NNW 19:30:04 55° W 19:35:58 10° SSW
USA 234 4.5 19:35:41 29° N 19:36:16 29° NNW 19:41:41 10° WNW
Cosmos 2278 Rocket 4.2 19:40:42 10° W 19:45:03 22° NW 19:46:46 20° NNW
NOSS 3-4 (A) 4.3 19:46:58 10° NW 19:52:04 53° NW 19:52:04 53° NW
NOSS 3-4 (C) 4.3 19:47:05 10° NW 19:52:08 52° NW 19:52:08 52° NW
Cosmos 2082 Rocket 4.1 20:04:17 10° NW 20:08:47 25° WSW 20:09:08 25° WSW
CZ-3B DEB 4.1 20:06:36 10° WNW 20:12:39 44° N 20:12:39 44° N
